This demonstration page uses our WeatherBlox Daily Observations layout. Learn more.

Left ArrowRight Arrow

Hourly Observations for July 25, 2016

Temp ( °F °C ) Dew Point ( °F °C ) Humidity (%) Winds ( mph kmh ) Pressure ( in mb ) Visibility ( mi km ) Precip ( " mm )
12:51 am 00:51 Clear 81 27.2 55 12.8 41 41 ESE 13 20 29.85 1011 10 16 0.00 0.00
1:51 am 01:51 Clear 80 26.7 55 12.8 42 42 E 18 30 29.85 1011 10 16 0.00 0.00
2:51 am 02:51 Clear 80 26.7 55 12.8 42 42 E 17 28 29.85 1011 10 16 0.00 0.00
3:51 am 03:51 Clear 80 26.7 54 12.2 41 41 E 8 13 29.85 1011 10 16 0.00 0.00
4:51 am 04:51 Clear 78 25.6 56 13.3 47 47 ESE 9 15 29.86 1011 10 16 0.00 0.00
5:51 am 05:51 Sunny 77 25 56 13.3 48 48 SE 7 11 29.86 1011 10 16 0.00 0.00
6:51 am 06:51 Sunny 78 25.6 57 13.9 48 48 Calm 29.90 1013 10 16 0.00 0.00
7:51 am 07:51 Sunny 79 26.1 57 13.9 47 47 Calm 29.92 1013 10 16 0.00 0.00
8:51 am 08:51 Sunny 82 27.8 57 13.9 42 42 Calm 29.92 1013 10 16 0.00 0.00
9:51 am 09:51 Sunny 84 28.9 56 13.3 38 38 Calm 29.92 1013 10 16 0.00 0.00
10:51 am 10:51 Sunny 87 30.6 56 13.3 35 35 Calm 29.89 1012 10 16 0.00 0.00
11:51 am 11:51 Sunny 93 33.9 56 13.3 29 29 undefined N/A 29.86 1011 10 16 0.00 0.00
12:51 pm 12:51 Sunny 96 35.6 57 13.9 27 27 W 9 15 29.82 1010 10 16 0.00 0.00
1:51 pm 13:51 Sunny 98 36.7 55 12.8 24 24 W 9 15 29.78 1008 10 16 0.00 0.00
2:51 pm 14:51 Sunny 99 37.2 50 10 19 19 WSW 5 7 29.75 1007 10 16 0.00 0.00
3:51 pm 15:51 Sunny 100 37.8 52 11.1 20 20 undefined N/A 29.72 1006 10 16 0.00 0.00
4:51 pm 16:51 Sunny 101 38.3 54 12.2 21 21 VRB 6 9 29.70 1006 10 16 0.00 0.00
5:51 pm 17:51 Sunny 100 37.8 54 12.2 21 21 WNW 6 9 29.70 1006 10 16 0.00 0.00
6:51 pm 18:51 Sunny 96 35.6 55 12.8 25 25 W 15 24 29.72 1007 10 16 0.00 0.00
7:51 pm 19:51 Clear 94 34.4 55 12.8 27 27 NW 9 15 29.74 1007 10 16 0.00 0.00
8:01 pm 20:01 Mostly Clear with Nearby Thunderstorms 93 33.9 55 12.8 28 28 NW 8 13 29.68 1005 10 16 0.00 0.00
8:51 pm 20:51 Mostly Cloudy with Nearby Thunderstorms 91 32.8 55 12.8 30 30 NE 15 24 29.78 1008 10 16 0.00 0.00
8:59 pm 20:59 Mostly Cloudy 90 32.2 56 13.3 32 32 NE 23 37 29.71 1006 10 16 0.00 0.00
9:15 pm 21:15 Mostly Clear with Thunderstorms 91 32.8 54 12.2 28 28 NNE 16 26 29.68 1005 10 16 0.00 0.00
9:34 pm 21:34 Clear 93 33.9 51 10.6 24 24 NNW 13 20 29.68 1005 10 16 0.00 0.00
9:51 pm 21:51 Clear 91 32.8 52 11.1 26 26 NNW 10 17 29.77 1008 10 16 0.00 0.00
10:51 pm 22:51 Clear 89 31.7 54 12.2 30 30 ESE 3 6 29.78 1009 10 16 0.00 0.00
11:51 pm 23:51 Clear 86 30 56 13.3 36 36 E 6 9 29.78 1009 10 16 0.00 0.00

Powered by AerisWeather